« Back
NWS Peachtree City, Ga » Text Product » GA Regional Weather Roundup


Printer-friendly Version
Current Version              Previous Versions:   1  2  3  4  5  6  7  8  9  

Regional Weather Roundup

562
ASUS42 KFFC 241503
RWRGA
WEATHER ROUNDUP FOR GEORGIA
NATIONAL WEATHER SERVICE PEACHTREE CITY GA
1100 AM EDT FRI OCT 24 2014

NOTE: "FAIR" INDICATES FEW OR NO CLOUDS BELOW 12,000 FEET WITH NO
SIGNIFICANT WEATHER AND/OR OBSTRUCTIONS TO VISIBILITY.

* = USE WITH CAUTION. THE STATIONS MARKED WITH AN ASTERISK MAY NOT
REPORT WEATHER SUCH AS PRECIPITATION, FOG, OR THUNDER AND ARE NOT
QUALITY CONTROLLED BY NWS.

THE REMARK "TC" DENOTES TEMPERATURE READING IN DEGREES CELSIUS.

GAZ001>058-241600-
NORTH GEORGIA

CITY           SKY/WX    TMP DP  RH WIND       PRES   REMARKS
ATLANTA        MOSUNNY   61  48  62 VRB5      30.08S
ATHENS         PTSUNNY   61  46  57 CALM      30.10R
CHAMBLEE       MOSUNNY   61  47  59 CALM      30.08F
PEACHTREE CITY MOSUNNY   60  49  66 E3        30.08F
ROME           MOSUNNY   61  46  57 N6        30.08F
WEST ATLANTA   MOSUNNY   60  47  61 NE3       30.08F
GAINESVILLE    PTSUNNY   57  41  55 E6        30.11R
CARTERSVILLE   MOSUNNY   56  45  66 N3        30.10F


CITY           SKY/WX    TMP DP  RH WIND       PRES   REMARKS
DALTON*        MOSUNNY   54  46  76 N3        30.10F
LAWRENCEVILLE* SUNNY     61  43  51 CALM      30.08R
KENNESAW*      MOSUNNY   55  46  71 CALM      30.11F
$$

GAZ059>098-102>109-241600-
CENTRAL GEORGIA

CITY           SKY/WX    TMP DP  RH WIND       PRES   REMARKS
AUGUSTA-BUSH   SUNNY     63  45  51 VRB3      30.08S
AUGUSTA-DANIEL SUNNY     62  44  51 SE6       30.09S
COLUMBUS       MOSUNNY   61  48  62 SE5       30.07F
MACON          SUNNY     64  49  57 CALM      30.08S
ROBINS AFB     SUNNY     62  51  67 VRB1      30.08S


CITY           SKY/WX    TMP DP  RH WIND       PRES   REMARKS
LAGRANGE*      MOSUNNY   60  51  71 CALM      30.09R
SYLVANIA*      PTSUNNY   66  53  63 E3        30.09S
MILLEDGEVILLE* SUNNY     63  54  72 CALM      30.08S
$$

GAZ099>101-110>166-241600-
SOUTH GEORGIA

CITY           SKY/WX    TMP DP  RH WIND       PRES   REMARKS
SAVANNAH       PTSUNNY   65  47  52 N5        30.08R
VALDOSTA       MOSUNNY   66  50  56 CALM      30.08S
ALMA           MOSUNNY   67  48  50 N3        30.07F
ST SIMONS      MOSUNNY   65  48  54 VRB7      30.07R
FT STEWART     PTSUNNY   64  49  57 N3        30.07R
ALBANY         SUNNY     68  51  54 CALM      30.09S
HUNTER AFB     PTSUNNY   64  49  58 N6        30.05S
MOODY AFB      SUNNY     67  49  50 VRB2      30.07S
BRUNSWICK      MOSUNNY   66  50  55 NW5       30.08R


CITY           SKY/WX    TMP DP  RH WIND       PRES   REMARKS
BAINBRIDGE*    SUNNY     68  52  56 CALM      30.08S
MOULTRIE*      SUNNY     64  50  59 CALM      30.08F
VIDALIA*       PTSUNNY   63  50  63 NE8       30.09R
WAYCROSS*      MOSUNNY   67  54  62 CALM      30.07S
DOUGLAS*       SUNNY     68  45  42 CALM      30.09S
$$



USA.gov is the U.S. government's official web portal to all federal, state and local government web resources and services.